Skip Page Navigation
NASA JPL Caltech
NASA Logo - Jet Propulsion Laboratory + View the NASA Portal
+ Center for Near-Earth Object Studies
JPL Home Earth Solar System Stars & Galaxies Technology
JPL Solar System Dynamics
BODIES ORBITS EPHEMERIDES TOOLS PHYSICAL DATA DISCOVERY FAQ SITE MAP
JPL Small-Body Database Browser
Search: [ help ]  
136114 (2003 GU37)
Classification: Main-belt Asteroid          SPK-ID: 2136114
Ephemeris | Orbit Diagram | Orbital Elements | Mission Design | Physical Parameters | Discovery Circumstances | Close-Approach Data ]

[ show orbit diagram ]
Orbital Elements at Epoch 2459000.5 (2020-May-31.0) TDB
Reference: JPL 16 (heliocentric ecliptic J2000)
 Element Value Uncertainty (1-sigma)   Units 
e .1233043043594762 3.6112e-08  
a 2.223095331483008 9.6935e-09 au
q 1.948978108109696 7.7849e-08 au
i 1.653241219120738 4.9063e-06 deg
node 195.9787898325043 0.00015237 deg
peri 50.33520561078506 0.00015396 deg
M 25.07864431295315 2.3193e-05 deg
tp 2458916.159317315624
(2020-Mar-07.65931732)
7.7913e-05 TDB
period 1210.697252510298
3.31
7.9186e-06
2.168e-08
d
yr
n .297349316068542 1.9448e-09 deg/d
Q 2.497212554856319 1.0889e-08 au
  Orbit Determination Parameters
   # obs. used (total)      346  
   data-arc span      10065 days (27.56 yr)  
   first obs. used      1993-03-28  
   last obs. used      2020-10-17  
   planetary ephem.      DE431  
   SB-pert. ephem.      SB431-N16  
   condition code      0  
   norm. resid. RMS      .6099  
   source      ORB  
   producer      Otto Matic  
   solution date      2020-Nov-12 15:55:33  

Additional Information
 Earth MOID = .935961 au 
 Jupiter MOID = 2.51548 au 
 T_jup = 3.637 
[ hide covariance matrix ]
Orbital Elements at Epoch 2457242.5 (2015-Aug-08.0) TDB
Reference: JPL 16 (heliocentric ecliptic J2000)
 Element Value Uncertainty (1-sigma)   Units 
e .1234196275177265 3.6109e-08  
q 1.948079622081916 7.7813e-08 au
tp 2457705.138684380758
(2016-Nov-12.63868438)
7.696e-05 TDB
node 196.0276364434038 0.00015251 deg
peri 50.16730760180621 0.0001541 deg
i 1.652194123787293 4.9059e-06 deg
  Orbit Determination Parameters
   # obs. used (total)      346  
   data-arc span      10065 days (27.56 yr)  
   first obs. used      1993-03-28  
   last obs. used      2020-10-17  
   planetary ephem.      DE431  
   SB-pert. ephem.      SB431-N16  
   condition code      0  
   norm. resid. RMS      .6099  
   source      ORB  
   producer      Otto Matic  
   solution date      2020-Nov-12 15:55:33  

Additional Information
 Jupiter MOID = 2.51548 au 
 T_jup = 3.637 
Orbit Covariance (6×6)
  e q tp node peri i
e 1.30386035382298E-15 -2.794784852570988E-15 -3.062901276516366E-14 -3.071061415759501E-16 -1.666527971651392E-14 2.386331593634795E-16
q -2.794784852570988E-15 6.054879167821527E-15 1.080635454299971E-13 1.99285077047813E-15 3.928234716698117E-14 -5.361168344806422E-16
tp -3.062901276516366E-14 1.080635454299971E-13 5.922831287935923E-9 1.672998519685453E-11 1.715500337407401E-9 1.467144634349337E-13
node -3.071061415759501E-16 1.99285077047813E-15 1.672998519685453E-11 2.325839757546849E-8 -2.324403921690908E-8 -2.078433707082614E-10
peri -1.666527971651392E-14 3.928234716698117E-14 1.715500337407401E-9 -2.324403921690908E-8 2.374751113159949E-8 2.078091858858854E-10
i 2.386331593634795E-16 -5.361168344806422E-16 1.467144634349337E-13 -2.078433707082614E-10 2.078091858858854E-10 2.406829756132313E-11

Ephemeris | Orbit Diagram | Orbital Elements | Mission Design | Physical Parameters | Discovery Circumstances | Close-Approach Data ]

Physical Parameter Table
Parameter Symbol Value Units Sigma Reference Notes
absolute magnitude H 17.2   n/a MPO426847  

136114 (2003 GU37)          Discovered 2003-Apr-07 by NEAT at Palomar
Reference: 20060907/Numbers.arcLast Updated: 2006-09-10

[ hide close-approach data ]
Close-Approach Data   ...sorted by Date/Time (TDB)
Date/Time (TDB) Time Uncertainty
(days_HH:MM)
Body Nominal Distance (au) Minimum Distance (au) Maximum Distance (au) V-relative (km/s) V-infinity (km/s) JD (TDB) Time Uncertainty (minutes) Semi-major axis (km) Semi-minor axis (km) range-LOV angle (deg) N-sigma BP Orbit Ref. Reference Modified
2070-Sep-20 11:13 < 00:01 Juno 0.0418659225649552 0.0418632930363483 0.0418685545016657 8.15127582016432 8.15127578451431 2477374.967168453 0.291420048403653 567.690429732921 55.429125250073 -77.8538265170552 110459.071132159 T 16 CATAB v2.0f-lin.ifort 2020-Nov-12 15:55:34 2020-Nov-12 15:55
Ephemeris | Orbit Diagram | Orbital Elements | Mission Design | Physical Parameters | Discovery Circumstances | Close-Approach Data ]
ABOUT SSD CREDITS/AWARDS PRIVACY/COPYRIGHT GLOSSARY LINKS
FirstGov 2020-Nov-29 08:28 UT
(server date/time)  
NASA Home Page
Site Manager:   Ryan S. Park
Webmaster  Alan B. Chamberlin